When you browse on this site, cookies collect data to enhance your experience and personalize the content and advertising you see.
Visit our Privacy Policy to learn more. By continuing to use the site, you agree to this use of cookies and data.
  • En España
  • Lista de países
  • Para 7 días
  • Temperatura del agua
  • Mapa Satelital
  • El tiempo en el mapa
  • Informadores
  • user-avatar
    Iniciar sesión

    Tiempo cada hora Kruhlyk

    Hoy, 21 Marzo, Jueves

    Tiempo Temperatura Precipitaciones Viento Presión Humedad
    00:00 +7°C° 0 mm 1 mps 743 mmHg 65%
    01:00 +7°C° 0 mm 1 mps 743 mmHg 67%
    02:00 +6°C° 0 mm 1 mps 743 mmHg 69%
    03:00 +5°C° 0 mm 2 mps 743 mmHg 71%
    04:00 +4°C° 0 mm 2 mps 743 mmHg 78%
    05:00 +3°C° 0 mm 3 mps 743 mmHg 85%
    06:00 +2°C° 0 mm 3 mps 743 mmHg 92%
    07:00 +3°C° 0.1 mm 4 mps 743 mmHg 90%
    08:00 +3°C° 0.1 mm 4 mps 743 mmHg 87%
    09:00 +3°C° 0.1 mm 4 mps 743 mmHg 85%
    10:00 +4°C° 0 mm 4 mps 743 mmHg 77%
    11:00 +5°C° 0 mm 4 mps 743 mmHg 68%
    12:00 +7°C° 0 mm 4 mps 743 mmHg 60%
    13:00 +7°C° 0 mm 4 mps 743 mmHg 54%
    14:00 +7°C° 0 mm 4 mps 743 mmHg 49%
    15:00 +8°C° 0 mm 4 mps 742 mmHg 44%
    16:00 +7°C° 0 mm 4 mps 742 mmHg 44%
    17:00 +7°C° 0 mm 4 mps 742 mmHg 45%
    18:00 +7°C° 0 mm 4 mps 742 mmHg 45%
    19:00 +6°C° 0 mm 4 mps 742 mmHg 50%
    20:00 +5°C° 0 mm 3 mps 742 mmHg 55%
    21:00 +5°C° 0 mm 3 mps 742 mmHg 59%
    22:00 +4°C° 0.2 mm 3 mps 742 mmHg 65%
    23:00 +4°C° 0.2 mm 4 mps 742 mmHg 70%

    Mañana, 22 Marzo, Viernes

    Tiempo Temperatura Precipitaciones Viento Presión Humedad
    00:00 +2°C° 0.2 mm 5 mps 741 mmHg 75%
    01:00 +1°C° 0 mm 4 mps 742 mmHg 78%
    02:00 +1°C° 0 mm 4 mps 742 mmHg 81%
    03:00 0°C° 0 mm 4 mps 742 mmHg 84%
    04:00 0°C° 0 mm 4 mps 742 mmHg 85%
    05:00 0°C° 0 mm 4 mps 742 mmHg 85%
    06:00 -1°C° 0 mm 4 mps 742 mmHg 86%
    07:00 0°C° 0 mm 4 mps 742 mmHg 81%
    08:00 +1°C° 0 mm 5 mps 742 mmHg 77%
    09:00 +1°C° 0 mm 5 mps 742 mmHg 72%
    10:00 +2°C° 0 mm 5 mps 742 mmHg 66%
    11:00 +5°C° 0 mm 5 mps 742 mmHg 60%
    12:00 +6°C° 0 mm 5 mps 742 mmHg 54%
    13:00 +6°C° 0 mm 5 mps 741 mmHg 54%
    14:00 +7°C° 0 mm 5 mps 741 mmHg 53%
    15:00 +7°C° 0 mm 6 mps 740 mmHg 53%
    16:00 +7°C° 0.1 mm 6 mps 739 mmHg 55%
    17:00 +5°C° 0.1 mm 6 mps 739 mmHg 58%
    18:00 +5°C° 0.1 mm 6 mps 738 mmHg 60%
    19:00 +5°C° 0.4 mm 7 mps 737 mmHg 67%
    20:00 +4°C° 0.4 mm 7 mps 736 mmHg 73%
    21:00 +4°C° 0.4 mm 8 mps 735 mmHg 80%
    22:00 +4°C° 0.7 mm 8 mps 735 mmHg 77%
    23:00 +3°C° 0.7 mm 7 mps 735 mmHg 75%

    Pasado mañana, 23 Marzo, Sábado

    Tiempo Temperatura Precipitaciones Viento Presión Humedad
    00:00 +3°C° 0.7 mm 7 mps 735 mmHg 73%
    01:00 +2°C° 0 mm 7 mps 735 mmHg 71%
    02:00 -1°C° 0 mm 7 mps 735 mmHg 69%
    03:00 -2°C° 0 mm 7 mps 735 mmHg 67%
    04:00 -3°C° 0 mm 7 mps 735 mmHg 68%
    05:00 -3°C° 0 mm 7 mps 735 mmHg 70%
    06:00 -3°C° 0 mm 7 mps 735 mmHg 71%
    07:00 -3°C° 0.1 mm 7 mps 735 mmHg 69%
    08:00 -2°C° 0.1 mm 7 mps 735 mmHg 67%
    09:00 -2°C° 0.1 mm 8 mps 735 mmHg 65%
    10:00 -2°C° 0.2 mm 8 mps 735 mmHg 62%
    11:00 -1°C° 0.2 mm 8 mps 735 mmHg 58%
    12:00 -1°C° 0.2 mm 7 mps 735 mmHg 54%
    13:00 -1°C° 0.1 mm 8 mps 735 mmHg 58%
    14:00 -1°C° 0.1 mm 8 mps 735 mmHg 61%
    15:00 -1°C° 0.1 mm 8 mps 735 mmHg 64%
    16:00 -1°C° 0.2 mm 8 mps 735 mmHg 69%
    17:00 -1°C° 0.2 mm 7 mps 736 mmHg 73%
    18:00 -1°C° 0.2 mm 7 mps 736 mmHg 78%
    19:00 -1°C° 0.1 mm 7 mps 736 mmHg 78%
    20:00 -1°C° 0.1 mm 7 mps 737 mmHg 78%
    21:00 -1°C° 0.1 mm 6 mps 738 mmHg 78%
    22:00 -2°C° 0 mm 6 mps 738 mmHg 80%
    23:00 -1°C° 0 mm 5 mps 738 mmHg 82%

    24 Marzo, Domingo

    Tiempo Temperatura Precipitaciones Viento Presión Humedad
    00:00 -2°C° 0 mm 5 mps 738 mmHg 84%
    01:00 -2°C° 0 mm 5 mps 739 mmHg 86%
    02:00 -2°C° 0 mm 5 mps 739 mmHg 87%
    03:00 -4°C° 0 mm 5 mps 739 mmHg 88%
    04:00 -3°C° 0 mm 4 mps 739 mmHg 89%
    05:00 -3°C° 0 mm 4 mps 739 mmHg 90%
    06:00 -2°C° 0 mm 3 mps 740 mmHg 90%
    07:00 -2°C° 0 mm 4 mps 740 mmHg 87%
    08:00 -2°C° 0 mm 4 mps 740 mmHg 83%
    09:00 -1°C° 0 mm 4 mps 740 mmHg 79%
    10:00 0°C° 0 mm 4 mps 740 mmHg 74%
    11:00 +1°C° 0 mm 4 mps 740 mmHg 69%
    12:00 +3°C° 0 mm 4 mps 740 mmHg 64%
    13:00 +3°C° 0 mm 5 mps 740 mmHg 62%
    14:00 +3°C° 0 mm 5 mps 739 mmHg 59%
    15:00 +5°C° 0 mm 5 mps 739 mmHg 56%
    16:00 +3°C° 0 mm 5 mps 739 mmHg 60%
    17:00 +3°C° 0 mm 5 mps 738 mmHg 64%
    18:00 +3°C° 0 mm 5 mps 738 mmHg 68%
    19:00 +2°C° 0 mm 5 mps 738 mmHg 71%
    20:00 +3°C° 0 mm 4 mps 738 mmHg 74%
    21:00 +3°C° 0 mm 4 mps 738 mmHg 77%
    22:00 +3°C° 0 mm 4 mps 738 mmHg 80%
    23:00 +3°C° 0 mm 3 mps 738 mmHg 84%

    25 Marzo, Lunes

    Tiempo Temperatura Precipitaciones Viento Presión Humedad
    00:00 +2°C° 0 mm 3 mps 738 mmHg 88%
    01:00 +2°C° 0 mm 3 mps 738 mmHg 86%
    02:00 +1°C° 0 mm 3 mps 738 mmHg 84%
    03:00 +1°C° 0 mm 3 mps 738 mmHg 81%
    04:00 0°C° 0 mm 3 mps 738 mmHg 80%
    05:00 0°C° 0 mm 3 mps 738 mmHg 79%
    06:00 -1°C° 0 mm 3 mps 738 mmHg 78%
    07:00 0°C° 0 mm 3 mps 739 mmHg 73%
    08:00 0°C° 0 mm 4 mps 739 mmHg 67%
    09:00 +1°C° 0 mm 4 mps 739 mmHg 62%
    10:00 +3°C° 0 mm 4 mps 740 mmHg 55%
    11:00 +4°C° 0 mm 4 mps 740 mmHg 48%
    12:00 +5°C° 0 mm 4 mps 740 mmHg 41%
    13:00 +5°C° 0 mm 3 mps 740 mmHg 39%
    14:00 +7°C° 0 mm 3 mps 739 mmHg 36%
    15:00 +7°C° 0 mm 3 mps 739 mmHg 34%
    16:00 +7°C° 0 mm 2 mps 739 mmHg 35%
    17:00 +8°C° 0 mm 1 mps 739 mmHg 37%
    18:00 +6°C° 0 mm 0 mps 738 mmHg 39%
    19:00 +7°C° 0 mm 1 mps 738 mmHg 42%
    20:00 +6°C° 0 mm 1 mps 738 mmHg 45%
    21:00 +4°C° 0 mm 2 mps 738 mmHg 48%
    22:00 +3°C° 0 mm 3 mps 737 mmHg 52%
    23:00 +3°C° 0 mm 3 mps 737 mmHg 55%

    26 Marzo, Martes

    Tiempo Temperatura Precipitaciones Viento Presión Humedad
    00:00 +2°C° 0 mm 3 mps 736 mmHg 59%
    01:00 +1°C° 0.2 mm 4 mps 736 mmHg 65%
    02:00 +1°C° 0.2 mm 5 mps 735 mmHg 71%
    03:00 +1°C° 0.2 mm 6 mps 734 mmHg 78%
    04:00 +2°C° 1.6 mm 7 mps 734 mmHg 81%
    05:00 +1°C° 1.6 mm 8 mps 733 mmHg 84%
    06:00 +1°C° 1.6 mm 9 mps 733 mmHg 88%
    07:00 +1°C° 0.9 mm 9 mps 733 mmHg 87%
    08:00 +2°C° 0.9 mm 9 mps 732 mmHg 86%
    09:00 +2°C° 0.9 mm 9 mps 732 mmHg 85%
    10:00 +2°C° 0.9 mm 9 mps 732 mmHg 84%
    11:00 +2°C° 0.9 mm 8 mps 732 mmHg 84%
    12:00 +4°C° 0.9 mm 8 mps 732 mmHg 83%
    13:00 +4°C° 0.5 mm 7 mps 732 mmHg 84%
    14:00 +4°C° 0.5 mm 7 mps 732 mmHg 84%
    15:00 +4°C° 0.5 mm 6 mps 732 mmHg 85%
    16:00 +5°C° 0.5 mm 5 mps 732 mmHg 86%
    17:00 +5°C° 0.5 mm 5 mps 732 mmHg 88%
    18:00 +5°C° 0.5 mm 4 mps 732 mmHg 89%
    19:00 +4°C° 0.1 mm 4 mps 732 mmHg 91%
    20:00 +4°C° 0.1 mm 3 mps 733 mmHg 92%
    21:00 +3°C° 0.1 mm 3 mps 733 mmHg 94%
    22:00 +4°C° 0 mm 2 mps 733 mmHg 94%
    23:00 +4°C° 0 mm 2 mps 733 mmHg 95%
    Mostrar más